| time (UTC) | temp F | wind direction | speed knots | gust knots | rain 1hr in | rain 24hr in | rain mn in | humidity % | barometer mb |
| 20260502230049 | 69 | 19 | 3.5 | 7.8 | 0.00 | 0.00 | 0.00 | 65 | 1011.9 |
| 20260502225548 | 68 | 0 | 3.5 | 7.8 | 0.00 | 0.00 | 0.00 | 67 | 1012.0 |
| 20260502225316 | 68 | 349 | 3.5 | 7.0 | 0.00 | 0.00 | 0.00 | 66 | 1012.0 |
| 20260502224550 | 67 | 312 | 2.6 | 7.8 | 0.00 | 0.00 | 0.00 | 67 | 1012.1 |
| 20260502224541 | 68 | 305 | 2.6 | 7.8 | 0.00 | 0.00 | 0.00 | 64 | 1012.2 |
| 20260502223539 | 67 | 328 | 2.6 | 7.0 | 0.00 | 0.00 | 0.00 | 68 | 1012.2 |
| 20260502223041 | 67 | 8 | 2.6 | 6.1 | 0.00 | 0.00 | 0.00 | 68 | 1012.3 |
| 20260502222534 | 66 | 293 | 4.3 | 8.7 | 0.00 | 0.00 | 0.00 | 68 | 1012.2 |
| 20260502222258 | 65 | 21 | 3.5 | 8.7 | 0.00 | 0.00 | 0.00 | 68 | 1012.4 |
| 20260502221535 | 65 | 6 | 2.6 | 7.0 | 0.00 | 0.00 | 0.00 | 68 | 1012.4 |
| 20260502221306 | 65 | 64 | 2.6 | 9.6 | 0.00 | 0.00 | 0.00 | 69 | 1012.5 |
| 20260502220534 | 65 | 48 | 3.5 | 9.6 | 0.00 | 0.00 | 0.00 | 70 | 1012.6 |
| 20260502220030 | 66 | 357 | 4.3 | 7.8 | 0.00 | 0.00 | 0.00 | 70 | 1012.8 |
| 20260502215529 | 65 | 308 | 3.5 | 7.0 | 0.00 | 0.00 | 0.00 | 70 | 1012.9 |
| 20260502215030 | 64 | 324 | 2.6 | 6.1 | 0.00 | 0.00 | 0.00 | 71 | 1012.9 |
| 20260502214530 | 64 | 308 | 2.6 | 6.1 | 0.00 | 0.00 | 0.00 | 69 | 1013.0 |
| 20260502214030 | 64 | 288 | 3.5 | 8.7 | 0.00 | 0.00 | 0.00 | 69 | 1013.0 |
| 20260502213754 | 65 | 24 | 3.5 | 8.7 | 0.00 | 0.00 | 0.00 | 65 | 1013.1 |
| 20260502213028 | 65 | 345 | 2.6 | 6.1 | 0.00 | 0.00 | 0.00 | 72 | 1013.2 |
| 20260502212529 | 64 | 356 | 3.5 | 7.8 | 0.00 | 0.00 | 0.00 | 70 | 1013.3 |
| 20260502212030 | 63 | 306 | 2.6 | 7.8 | 0.00 | 0.00 | 0.00 | 71 | 1013.4 |
| 20260502211528 | 62 | 314 | 1.7 | 5.2 | 0.00 | 0.00 | 0.00 | 71 | 1013.6 |
| 20260502211023 | 63 | 36 | 2.6 | 7.0 | 0.00 | 0.00 | 0.00 | 73 | 1013.6 |
| 20260502210524 | 63 | 19 | 3.5 | 7.8 | 0.00 | 0.00 | 0.00 | 73 | 1013.6 |
| 20260502210244 | 62 | 11 | 2.6 | 7.8 | 0.00 | 0.00 | 0.00 | 72 | 1013.6 |
| 20260502205511 | 63 | 37 | 2.6 | 7.8 | 0.00 | 0.00 | 0.00 | 71 | 1013.6 |
| 20260502205243 | 63 | 287 | 2.6 | 6.1 | 0.00 | 0.00 | 0.00 | 72 | 1013.6 |
| 20260502204514 | 63 | 63 | 2.6 | 6.1 | 0.00 | 0.00 | 0.00 | 70 | 1013.9 |
| 20260502204239 | 62 | 310 | 3.5 | 7.0 | 0.00 | 0.00 | 0.00 | 73 | 1013.9 |
| 20260502203506 | 62 | 330 | 3.5 | 7.0 | 0.00 | 0.00 | 0.00 | 71 | 1013.9 |
| 20260502203006 | 62 | 341 | 4.3 | 8.7 | 0.00 | 0.00 | 0.00 | 75 | 1013.9 |
| 20260502202500 | 63 | 356 | 4.3 | 8.7 | 0.00 | 0.00 | 0.00 | 70 | 1013.9 |
| 20260502201959 | 62 | 323 | 3.5 | 9.6 | 0.00 | 0.00 | 0.00 | 73 | 1013.8 |
| 20260502201458 | 61 | 0 | 3.5 | 9.6 | 0.00 | 0.00 | 0.00 | 75 | 1014.0 |
| 20260502200957 | 61 | 27 | 2.6 | 7.0 | 0.00 | 0.00 | 0.00 | 72 | 1014.1 |
| 20260502200455 | 60 | 333 | 1.7 | 7.0 | 0.00 | 0.00 | 0.00 | 75 | 1014.2 |
| 20260502195959 | 60 | 0 | 2.6 | 7.0 | 0.00 | 0.00 | 0.00 | 76 | 1014.2 |
| 20260502195457 | 59 | 28 | 3.5 | 7.0 | 0.00 | 0.00 | 0.00 | 77 | 1014.3 |
| 20260502194953 | 59 | 352 | 2.6 | 7.0 | 0.00 | 0.00 | 0.00 | 76 | 1014.3 |
| 20260502194454 | 58 | 339 | 2.6 | 6.1 | 0.00 | 0.00 | 0.00 | 78 | 1014.3 |
| 20260502193956 | 58 | 5 | 2.6 | 6.1 | 0.00 | 0.00 | 0.00 | 78 | 1014.6 |
| 20260502193451 | 58 | 318 | 2.6 | 6.1 | 0.00 | 0.00 | 0.00 | 77 | 1014.6 |
| 20260502192952 | 58 | 4 | 2.6 | 5.2 | 0.00 | 0.00 | 0.00 | 77 | 1014.7 |
| 20260502192455 | 58 | 313 | 3.5 | 6.1 | 0.00 | 0.00 | 0.00 | 77 | 1014.5 |
| 20260502191952 | 58 | 49 | 2.6 | 6.1 | 0.00 | 0.00 | 0.00 | 78 | 1014.6 |
| 20260502191453 | 58 | 359 | 3.5 | 8.7 | 0.00 | 0.00 | 0.00 | 79 | 1014.6 |
| 20260502190951 | 58 | 28 | 3.5 | 8.7 | 0.00 | 0.00 | 0.00 | 78 | 1014.7 |
| 20260502190453 | 58 | 6 | 2.6 | 7.0 | 0.00 | 0.00 | 0.00 | 79 | 1014.7 |
| 20260502185946 | 58 | 33 | 3.5 | 9.6 | 0.00 | 0.00 | 0.00 | 78 | 1014.6 |
| 20260502185449 | 58 | 23 | 4.3 | 9.6 | 0.00 | 0.00 | 0.00 | 79 | 1014.7 |
| 20260502185154 | 57 | 29 | 3.5 | 7.8 | 0.00 | 0.00 | 0.00 | 78 | 1014.8 |
| 20260502185037 | 57 | 310 | 3.5 | 7.8 | 0.00 | 0.00 | 0.00 | 78 | 1014.7 |
| 20260502183943 | 57 | 341 | 3.5 | 7.0 | 0.00 | 0.00 | 0.00 | 79 | 1014.9 |
| 20260502183444 | 57 | 331 | 3.5 | 7.0 | 0.00 | 0.00 | 0.00 | 80 | 1014.9 |
| 20260502182944 | 57 | 15 | 3.5 | 7.0 | 0.00 | 0.00 | 0.00 | 80 | 1014.9 |
| 20260502182706 | 57 | 10 | 3.5 | 7.0 | 0.00 | 0.00 | 0.00 | 80 | 1014.9 |
| 20260502182200 | 56 | 352 | 2.6 | 7.8 | 0.00 | 0.00 | 0.00 | 80 | 1015.0 |
| 20260502181435 | 56 | 332 | 3.5 | 7.8 | 0.00 | 0.00 | 0.00 | 81 | 1015.0 |
| 20260502180935 | 56 | 332 | 3.5 | 7.8 | 0.00 | 0.00 | 0.00 | 81 | 1015.1 |
| 20260502180658 | 55 | 2 | 3.5 | 7.8 | 0.00 | 0.00 | 0.00 | 82 | 1015.0 |
| 20260502170404 | 54 | 294 | 2.6 | 6.1 | 0.00 | 0.00 | 0.00 | 83 | 1015.3 |
| 20260502163858 | 54 | 316 | 4.3 | 7.0 | 0.00 | 0.00 | 0.00 | 84 | 1015.4 |
| 20260502163359 | 54 | 251 | 3.5 | 7.0 | 0.00 | 0.00 | 0.00 | 85 | 1015.5 |
| 20260502162857 | 54 | 297 | 3.5 | 7.0 | 0.00 | 0.00 | 0.00 | 86 | 1015.3 |
| 20260502162620 | 53 | 295 | 2.6 | 7.0 | 0.00 | 0.00 | 0.00 | 85 | 1015.3 |
| 20260502161855 | 54 | 283 | 2.6 | 5.2 | 0.00 | 0.00 | 0.00 | 85 | 1015.4 |
| 20260502161354 | 53 | 293 | 3.5 | 6.1 | 0.00 | 0.00 | 0.00 | 85 | 1015.2 |
| 20260502161337 | 54 | 326 | 2.6 | 6.1 | 0.00 | 0.00 | 0.00 | 84 | 1015.2 |
| 20260502160356 | 54 | 352 | 2.6 | 5.2 | 0.00 | 0.00 | 0.00 | 84 | 1015.2 |
| 20260502151840 | 53 | 43 | 2.6 | 6.1 | 0.00 | 0.00 | 0.00 | 83 | 1015.3 |
| 20260502151336 | 53 | 48 | 3.5 | 6.1 | 0.00 | 0.00 | 0.00 | 84 | 1015.3 |
| 20260502150838 | 53 | 18 | 3.5 | 6.1 | 0.00 | 0.00 | 0.00 | 85 | 1015.3 |
| 20260502150337 | 52 | 57 | 2.6 | 6.1 | 0.00 | 0.00 | 0.00 | 85 | 1015.3 |
| 20260502130718 | 49 | 173 | 0.0 | 1.7 | 0.00 | 0.00 | 0.00 | 88 | 1015.0 |
| 20260502130219 | 49 | 161 | 0.0 | 0.0 | 0.00 | 0.00 | 0.00 | 88 | 1014.7 |
| 20260502123120 | 50 | 216 | 0.0 | 0.9 | 0.00 | 0.00 | 0.00 | 86 | 1015.1 |
| 20260502122558 | 50 | 216 | 0.9 | 1.7 | 0.00 | 0.00 | 0.00 | 87 | 1015.1 |
| 20260502122055 | 50 | 216 | 0.9 | 1.7 | 0.00 | 0.00 | 0.00 | 87 | 1015.1 |
| 20260502121540 | 50 | 216 | 0.9 | 1.7 | 0.00 | 0.00 | 0.00 | 86 | 1015.1 |
| 20260502121040 | 50 | 216 | 0.9 | 1.7 | 0.00 | 0.00 | 0.00 | 87 | 1015.2 |
| 20260502120544 | 50 | 216 | 0.9 | 2.6 | 0.00 | 0.00 | 0.00 | 87 | 1015.1 |
| 20260502115525 | 49 | 216 | 2.6 | 7.0 | 0.00 | 0.00 | 0.00 | 87 | 1015.3 |
| 20260502115025 | 49 | 237 | 3.5 | 7.0 | 0.00 | 0.00 | 0.00 | 87 | 1015.4 |
| 20260502115000 | 49 | 221 | 2.6 | 6.1 | 0.00 | 0.00 | 0.00 | 88 | 1015.4 |
| 20260502114459 | 49 | 212 | 2.6 | 6.1 | 0.00 | 0.00 | 0.00 | 88 | 1015.4 |
| 20260502113517 | 49 | 214 | 2.6 | 5.2 | 0.00 | 0.00 | 0.00 | 89 | 1015.5 |
| 20260502113013 | 50 | 201 | 2.6 | 4.3 | 0.00 | 0.00 | 0.00 | 89 | 1015.4 |
| 20260502112513 | 50 | 200 | 1.7 | 4.3 | 0.00 | 0.00 | 0.00 | 88 | 1015.5 |
| 20260502112007 | 50 | 222 | 1.7 | 2.6 | 0.00 | 0.00 | 0.00 | 85 | 1015.4 |
| 20260502111952 | 50 | 192 | 1.7 | 2.6 | 0.00 | 0.00 | 0.00 | 85 | 1015.5 |
| 20260502111003 | 50 | 219 | 1.7 | 2.6 | 0.00 | 0.00 | 0.00 | 85 | 1015.4 |
| 20260502110440 | 50 | 223 | 1.7 | 2.6 | 0.00 | 0.00 | 0.00 | 85 | 1015.5 |
| 20260502105942 | 50 | 188 | 1.7 | 3.5 | 0.00 | 0.00 | 0.00 | 85 | 1015.6 |
| 20260502105431 | 50 | 188 | 1.7 | 3.5 | 0.00 | 0.00 | 0.00 | 85 | 1015.5 |
| 20260502104933 | 50 | 197 | 0.9 | 2.6 | 0.00 | 0.00 | 0.00 | 86 | 1015.5 |
| 20260502104649 | 50 | 197 | 0.9 | 1.7 | 0.00 | 0.00 | 0.00 | 86 | 1015.5 |
| 20260502104157 | 50 | 197 | 1.7 | 3.5 | 0.00 | 0.00 | 0.00 | 86 | 1015.6 |
| 20260502103426 | 50 | 197 | 1.7 | 3.5 | 0.00 | 0.00 | 0.00 | 86 | 1015.6 |
| 20260502102928 | 50 | 185 | 0.9 | 2.6 | 0.00 | 0.00 | 0.00 | 85 | 1015.6 |
| 20260502102427 | 50 | 185 | 0.9 | 2.6 | 0.00 | 0.00 | 0.00 | 85 | 1015.5 |
| 20260502101922 | 50 | 185 | 1.7 | 2.6 | 0.00 | 0.00 | 0.00 | 85 | 1015.5 |
| 20260502101423 | 50 | 206 | 1.7 | 3.5 | 0.00 | 0.00 | 0.00 | 85 | 1015.5 |
| 20260502100911 | 50 | 216 | 0.9 | 3.5 | 0.00 | 0.00 | 0.00 | 85 | 1015.5 |
| 20260502100409 | 50 | 180 | 0.9 | 2.6 | 0.00 | 0.00 | 0.00 | 86 | 1015.6 |
| 20260502090840 | 49 | 231 | 1.7 | 5.2 | 0.00 | 0.00 | 0.00 | 86 | 1015.7 |
| 20260502090342 | 49 | 251 | 1.7 | 5.2 | 0.00 | 0.00 | 0.00 | 85 | 1015.8 |
| 20260502071307 | 51 | 259 | 2.6 | 6.1 | 0.00 | 0.00 | 0.00 | 82 | 1016.7 |
| 20260502070803 | 52 | 270 | 3.5 | 6.1 | 0.00 | 0.00 | 0.00 | 82 | 1016.7 |
| 20260502070303 | 52 | 240 | 3.5 | 6.1 | 0.00 | 0.00 | 0.00 | 81 | 1016.6 |
| 20260502065803 | 52 | 270 | 3.5 | 7.0 | 0.00 | 0.00 | 0.00 | 81 | 1016.7 |
| 20260502065306 | 52 | 226 | 3.5 | 7.0 | 0.00 | 0.00 | 0.00 | 81 | 1016.7 |
| 20260502064801 | 52 | 221 | 3.5 | 7.8 | 0.00 | 0.00 | 0.00 | 81 | 1016.8 |
| 20260502064303 | 52 | 239 | 3.5 | 7.8 | 0.00 | 0.00 | 0.00 | 81 | 1016.8 |
| 20260502063805 | 52 | 216 | 3.5 | 6.1 | 0.00 | 0.00 | 0.00 | 81 | 1016.8 |
| 20260502063302 | 52 | 227 | 2.6 | 6.1 | 0.00 | 0.00 | 0.00 | 81 | 1016.8 |
| 20260502063024 | 52 | 203 | 2.6 | 4.3 | 0.00 | 0.00 | 0.00 | 81 | 1016.8 |
| 20260502062258 | 53 | 219 | 2.6 | 3.5 | 0.00 | 0.00 | 0.00 | 81 | 1016.9 |
| 20260502061757 | 53 | 181 | 2.6 | 3.5 | 0.00 | 0.00 | 0.00 | 81 | 1016.9 |
| 20260502061255 | 53 | 239 | 2.6 | 5.2 | 0.00 | 0.00 | 0.00 | 80 | 1016.8 |
| 20260502060754 | 53 | 256 | 3.5 | 7.0 | 0.00 | 0.00 | 0.00 | 81 | 1016.8 |
| 20260502060256 | 53 | 238 | 3.5 | 7.0 | 0.00 | 0.00 | 0.00 | 81 | 1016.7 |
| 20260502055755 | 53 | 252 | 3.5 | 7.0 | 0.00 | 0.00 | 0.00 | 81 | 1016.7 |
| 20260502055254 | 53 | 225 | 4.3 | 8.7 | 0.00 | 0.00 | 0.00 | 80 | 1016.6 |
| 20260502054753 | 53 | 237 | 4.3 | 8.7 | 0.00 | 0.00 | 0.00 | 80 | 1016.6 |
| 20260502054253 | 53 | 265 | 3.5 | 7.0 | 0.00 | 0.00 | 0.00 | 80 | 1016.4 |
| 20260502053752 | 53 | 228 | 3.5 | 7.8 | 0.00 | 0.00 | 0.00 | 80 | 1016.4 |
| 20260502053511 | 53 | 237 | 3.5 | 7.8 | 0.00 | 0.00 | 0.00 | 80 | 1016.4 |
| 20260502053018 | 53 | 243 | 3.5 | 7.0 | 0.00 | 0.00 | 0.00 | 80 | 1016.5 |
| 20260502052250 | 53 | 254 | 4.3 | 7.0 | 0.00 | 0.00 | 0.00 | 79 | 1016.4 |
| 20260502051747 | 53 | 243 | 4.3 | 7.8 | 0.00 | 0.00 | 0.00 | 79 | 1016.4 |
| 20260502051248 | 54 | 228 | 4.3 | 8.7 | 0.00 | 0.00 | 0.00 | 78 | 1016.3 |
| 20260502050747 | 54 | 265 | 4.3 | 8.7 | 0.00 | 0.00 | 0.00 | 78 | 1016.4 |
| 20260502050507 | 54 | 227 | 4.3 | 8.7 | 0.00 | 0.00 | 0.00 | 78 | 1016.3 |
| 20260502050007 | 54 | 227 | 4.3 | 8.7 | 0.00 | 0.00 | 0.00 | 77 | 1016.4 |
| 20260502045239 | 54 | 256 | 5.2 | 8.7 | 0.00 | 0.00 | 0.00 | 77 | 1016.3 |
| 20260502044956 | 55 | 252 | 5.2 | 8.7 | 0.00 | 0.00 | 0.00 | 76 | 1016.2 |
| 20260502044239 | 55 | 241 | 5.2 | 9.6 | 0.00 | 0.00 | 0.00 | 76 | 1016.2 |
| 20260502043735 | 55 | 289 | 5.2 | 9.6 | 0.00 | 0.00 | 0.00 | 75 | 1016.1 |
| 20260502043237 | 55 | 287 | 5.2 | 9.6 | 0.00 | 0.00 | 0.00 | 75 | 1016.1 |
| 20260502042738 | 56 | 233 | 5.2 | 9.6 | 0.00 | 0.00 | 0.00 | 74 | 1016.0 |
| 20260502042233 | 56 | 239 | 6.1 | 10.4 | 0.00 | 0.00 | 0.00 | 73 | 1016.0 |
| 20260502041955 | 56 | 254 | 5.2 | 10.4 | 0.00 | 0.00 | 0.00 | 73 | 1016.0 |
| 20260502041453 | 56 | 239 | 4.3 | 7.8 | 0.00 | 0.00 | 0.00 | 73 | 1015.9 |
| 20260502040724 | 56 | 232 | 4.3 | 8.7 | 0.00 | 0.00 | 0.00 | 73 | 1015.8 |
| 20260502040224 | 57 | 226 | 5.2 | 8.7 | 0.00 | 0.00 | 0.00 | 73 | 1015.7 |
| 20260502035723 | 57 | 244 | 5.2 | 9.6 | 0.00 | 0.00 | 0.00 | 72 | 1015.7 |
| 20260502035218 | 57 | 231 | 5.2 | 9.6 | 0.00 | 0.00 | 0.00 | 71 | 1015.5 |
| 20260502034717 | 58 | 238 | 4.3 | 8.7 | 0.00 | 0.00 | 0.00 | 70 | 1015.4 |
| 20260502034218 | 58 | 249 | 4.3 | 8.7 | 0.00 | 0.00 | 0.00 | 70 | 1015.3 |
| 20260502033717 | 58 | 242 | 3.5 | 8.7 | 0.00 | 0.00 | 0.00 | 70 | 1015.3 |
| 20260502033439 | 59 | 234 | 3.5 | 8.7 | 0.00 | 0.00 | 0.00 | 69 | 1015.2 |
| 20260502032714 | 60 | 237 | 5.2 | 9.6 | 0.00 | 0.00 | 0.00 | 67 | 1015.2 |
| 20260502032214 | 60 | 241 | 5.2 | 9.6 | 0.00 | 0.00 | 0.00 | 66 | 1015.1 |
| 20260502031716 | 60 | 246 | 4.3 | 9.6 | 0.00 | 0.00 | 0.00 | 66 | 1015.1 |
| 20260502031212 | 60 | 232 | 4.3 | 7.8 | 0.00 | 0.00 | 0.00 | 68 | 1014.9 |
| 20260502030713 | 61 | 224 | 3.5 | 7.8 | 0.00 | 0.00 | 0.00 | 68 | 1015.0 |
| 20260502030708 | 62 | 232 | 3.5 | 7.0 | 0.00 | 0.00 | 0.00 | 67 | 1014.9 |
| 20260502025711 | 62 | 248 | 3.5 | 7.0 | 0.00 | 0.00 | 0.00 | 65 | 1014.9 |
| 20260502025211 | 63 | 260 | 3.5 | 7.0 | 0.00 | 0.00 | 0.00 | 64 | 1014.8 |
| 20260502024708 | 64 | 285 | 3.5 | 7.0 | 0.00 | 0.00 | 0.00 | 63 | 1014.7 |
| 20260502024208 | 64 | 248 | 3.5 | 7.8 | 0.00 | 0.00 | 0.00 | 63 | 1014.7 |
| 20260502023706 | 65 | 258 | 3.5 | 7.8 | 0.00 | 0.00 | 0.00 | 62 | 1014.7 |
| 20260502023206 | 65 | 292 | 3.5 | 6.1 | 0.00 | 0.00 | 0.00 | 62 | 1014.6 |
| 20260502022705 | 66 | 290 | 3.5 | 7.8 | 0.00 | 0.00 | 0.00 | 62 | 1014.5 |
| 20260502022204 | 66 | 292 | 4.3 | 8.7 | 0.00 | 0.00 | 0.00 | 61 | 1014.4 |
| 20260502021706 | 66 | 281 | 4.3 | 8.7 | 0.00 | 0.00 | 0.00 | 61 | 1014.4 |
| 20260502021433 | 66 | 292 | 4.3 | 8.7 | 0.00 | 0.00 | 0.00 | 62 | 1014.4 |
| 20260502020702 | 67 | 308 | 3.5 | 8.7 | 0.00 | 0.00 | 0.00 | 62 | 1014.3 |
| 20260502020421 | 67 | 332 | 3.5 | 6.1 | 0.00 | 0.00 | 0.00 | 68 | 1014.3 |
| 20260502015703 | 67 | 283 | 4.3 | 8.7 | 0.00 | 0.00 | 0.00 | 68 | 1014.3 |
| 20260502015201 | 67 | 283 | 4.3 | 8.7 | 0.00 | 0.00 | 0.00 | 67 | 1014.3 |
| 20260502014700 | 67 | 287 | 4.3 | 8.7 | 0.00 | 0.00 | 0.00 | 64 | 1014.3 |
| 20260502014159 | 67 | 252 | 5.2 | 8.7 | 0.00 | 0.00 | 0.00 | 63 | 1014.3 |
| 20260502013658 | 68 | 275 | 4.3 | 8.7 | 0.00 | 0.00 | 0.00 | 63 | 1014.2 |
| 20260502013157 | 69 | 312 | 2.6 | 7.8 | 0.00 | 0.00 | 0.00 | 65 | 1014.3 |
| 20260502012923 | 69 | 322 | 2.6 | 6.1 | 0.00 | 0.00 | 0.00 | 68 | 1014.2 |
| 20260502012158 | 69 | 0 | 3.5 | 7.0 | 0.00 | 0.00 | 0.00 | 67 | 1014.1 |
| 20260502011656 | 69 | 327 | 4.3 | 9.6 | 0.00 | 0.00 | 0.00 | 66 | 1014.1 |
| 20260502011154 | 70 | 319 | 5.2 | 9.6 | 0.00 | 0.00 | 0.00 | 65 | 1014.2 |
| 20260502010655 | 70 | 347 | 4.3 | 7.8 | 0.00 | 0.00 | 0.00 | 64 | 1014.1 |
| 20260502010157 | 70 | 312 | 4.3 | 7.8 | 0.00 | 0.00 | 0.00 | 66 | 1014.1 |
| 20260502005654 | 70 | 354 | 4.3 | 7.8 | 0.00 | 0.00 | 0.00 | 64 | 1014.1 |
| 20260502005153 | 70 | 4 | 4.3 | 7.8 | 0.00 | 0.00 | 0.00 | 63 | 1014.0 |
| 20260502004652 | 71 | 335 | 4.3 | 7.8 | 0.00 | 0.00 | 0.00 | 63 | 1014.1 |
| 20260502004154 | 71 | 0 | 4.3 | 8.7 | 0.00 | 0.00 | 0.00 | 60 | 1014.1 |
| 20260502003654 | 71 | 341 | 5.2 | 8.7 | 0.00 | 0.00 | 0.00 | 59 | 1014.0 |
| 20260502003148 | 71 | 350 | 4.3 | 8.7 | 0.00 | 0.00 | 0.00 | 59 | 1013.9 |
| 20260502002648 | 72 | 331 | 4.3 | 7.8 | 0.00 | 0.00 | 0.00 | 59 | 1013.8 |
| 20260502002152 | 73 | 319 | 4.3 | 7.8 | 0.00 | 0.00 | 0.00 | 57 | 1013.9 |
| 20260502001912 | 73 | 4 | 3.5 | 7.8 | 0.00 | 0.00 | 0.00 | 57 | 1013.9 |
| 20260502001150 | 73 | 287 | 3.5 | 7.0 | 0.00 | 0.00 | 0.00 | 55 | 1014.0 |
| 20260502000644 | 73 | 322 | 3.5 | 7.0 | 0.00 | 0.00 | 0.00 | 57 | 1014.0 |
| 20260502000145 | 73 | 22 | 3.5 | 7.0 | 0.00 | 0.00 | 0.00 | 56 | 1014.1 |
| 20260501235632 | 73 | 208 | 1.7 | 6.1 | 0.00 | 0.00 | 0.00 | 55 | 1014.0 |
| 20260501235342 | 73 | 270 | 1.7 | 4.3 | 0.00 | 0.00 | 0.00 | 55 | 1014.3 |
| 20260501234604 | 73 | 218 | 0.9 | 4.3 | 0.00 | 0.00 | 0.00 | 53 | 1014.2 |
| 20260501234055 | 73 | 232 | 0.9 | 3.5 | 0.00 | 0.00 | 0.00 | 56 | 1014.2 |
| 20260501233557 | 72 | 227 | 2.6 | 5.2 | 0.00 | 0.00 | 0.00 | 55 | 1014.3 |
| 20260501233055 | 73 | 289 | 2.6 | 5.2 | 0.00 | 0.00 | 0.00 | 56 | 1014.3 |
| 20260501232554 | 72 | 229 | 2.6 | 7.0 | 0.00 | 0.00 | 0.00 | 57 | 1014.4 |
| 20260501232055 | 72 | 127 | 3.5 | 7.0 | 0.00 | 0.00 | 0.00 | 55 | 1014.4 |
| 20260501231551 | 72 | 160 | 3.5 | 6.1 | 0.00 | 0.00 | 0.00 | 56 | 1014.4 |
| 20260501231054 | 73 | 167 | 2.6 | 6.1 | 0.00 | 0.00 | 0.00 | 55 | 1014.4 |
| 20260501230551 | 73 | 210 | 1.7 | 4.3 | 0.00 | 0.00 | 0.00 | 55 | 1014.6 |